Weather History for Enid, OK

Change the Weather History Date:

Tuesday, January 28, 2014

  Actual Average Record
Temperature  
Mean Temperature 21 °F -  
Max Temperature 32 °F 44 °F 77 °F (2011)
Min Temperature 10 °F 28 °F 6 °F (2009)
Degree Days  
Heating Degree Days 44    
Moisture  
Dew Point 12 °F    
Average Humidity 76    
Maximum Humidity 93    
Minimum Humidity 44    
Precipitation  
Precipitation 0.00 in - - ()
Sea Level Pressure  
Sea Level Pressure 30.42 in    
Wind  
Wind Speed 8 mph (WNW)    
Max Wind Speed 15 mph    
Max Gust Speed 21 mph    
Visibility 9 miles    
Events Snow    
Averages and records for this station are not official NWS values.
T = Trace of Precipitation, MM = Missing Value Source: NWS Daily Summary

Daily Weather History Graph

Daily Weather History Graph

Search for Another Location

Airport:

Trip Planner

Search our weather history database for the weather conditions in past years. The results will help you decide how hot, cold, wet, or windy it might be!

Date:

Astronomy

Jan. 28, 2014 Rise Set
Actual Time 7:35 AM CST 5:53 PM CST
Civil Twilight 7:08 AM CST 6:20 PM CST
Nautical Twilight 6:37 AM CST 6:51 PM CST
Astronomical Twilight 6:06 AM CST 7:22 PM CST
Moon 5:17 AM CST (1/28) 3:45 PM CST (1/28)
Length of Visible Light 11h 12m
Length of Day
10h 17m
Waning Crescent, 7% of the Moon is Illuminated
Jan 28
Waning Crescent
Jan 30
New
Feb 6
First Quarter
Feb 14
Full
Feb 22
Last Quarter

Hourly Weather History & Observations

Time (CST) Temp. Windchill Dew Point Humidity Pressure Visibility Wind Dir Wind Speed Gust Speed Precip Events Conditions
12:15 AM 19.4 °F 8.6 °F 3.2 °F 49% 30.46 in 10.0 mi NNE 9.2 mph - N/A   Clear
12:35 AM 17.6 °F 6.4 °F 5.0 °F 58% 30.46 in 10.0 mi NNE 9.2 mph - N/A   Clear
12:55 AM 17.6 °F 3.2 °F 8.6 °F 68% 30.46 in 2.5 mi North 15.0 mph - N/A Snow Light Snow
1:15 AM 15.8 °F 2.1 °F 10.4 °F 79% 30.47 in 3.0 mi North 12.7 mph - N/A Snow Light Snow
1:35 AM 15.8 °F 2.1 °F 12.2 °F 86% 30.47 in 2.5 mi North 12.7 mph - N/A Snow Light Snow
1:55 AM 15.8 °F 2.7 °F 12.2 °F 86% 30.46 in 2.5 mi NNE 11.5 mph - N/A Snow Light Snow
2:15 AM 15.8 °F 3.4 °F 12.2 °F 86% 30.46 in 3.0 mi NNE 10.4 mph - N/A Snow Light Snow
2:35 AM 15.8 °F 4.2 °F 12.2 °F 86% 30.46 in 3.0 mi NNE 9.2 mph - N/A Snow Light Snow
2:55 AM 15.8 °F 5.1 °F 12.2 °F 86% 30.45 in 4.0 mi NNE 8.1 mph - N/A Snow Light Snow
3:15 AM 15.8 °F 7.2 °F 12.2 °F 86% 30.45 in 5.0 mi ENE 5.8 mph - N/A Snow Light Snow
3:35 AM 14.0 °F 6.5 °F 10.4 °F 86% 30.46 in 10.0 mi NE 4.6 mph - N/A   Scattered Clouds
3:55 AM 14.0 °F - 10.4 °F 86% 30.46 in 10.0 mi Calm Calm - N/A   Clear
4:15 AM 14.0 °F - 12.2 °F 93% 30.45 in 10.0 mi Calm Calm - N/A   Clear
4:35 AM 14.0 °F - 12.2 °F 93% 30.45 in 10.0 mi Calm Calm - N/A   Clear
4:55 AM 14.0 °F - 10.4 °F 86% 30.44 in 10.0 mi Calm Calm - N/A   Clear
6:17 AM 12.2 °F 2.9 °F 8.6 °F 85% 30.46 in 10.0 mi NW 5.8 mph - N/A   Mostly Cloudy
6:50 AM 12.2 °F 6.1 °F 8.6 °F 85% 30.47 in 10.0 mi WSW 3.5 mph - N/A   Mostly Cloudy
7:50 AM 10.4 °F 4.0 °F 8.6 °F 92% 30.49 in 10.0 mi NW 3.5 mph - N/A   Mostly Cloudy
8:50 AM 14.0 °F 2.9 °F 12.2 °F 93% 30.51 in 10.0 mi NW 8.1 mph - N/A   Mostly Cloudy
9:50 AM 19.4 °F 7.2 °F 12.2 °F 74% 30.52 in 10.0 mi NW 11.5 mph - N/A   Scattered Clouds
10:55 AM 23.0 °F 11.7 °F 12.2 °F 63% 30.51 in 10.0 mi West 11.5 mph - N/A   Partly Cloudy
11:50 AM 24.8 °F 14.0 °F 12.2 °F 59% 30.51 in 10.0 mi West 11.5 mph - N/A   Partly Cloudy
12:50 PM 26.6 °F 16.2 °F 12.2 °F 55% 30.45 in 10.0 mi West 11.5 mph - N/A   Scattered Clouds
1:50 PM 30.2 °F 20.8 °F 10.4 °F 44% 30.42 in 10.0 mi SW 11.5 mph - N/A   Partly Cloudy
2:50 PM 32.0 °F 23.0 °F 14.0 °F 48% 30.38 in 10.0 mi West 11.5 mph 17.3 mph N/A   Scattered Clouds
3:50 PM 32.0 °F 22.1 °F 15.8 °F 51% 30.36 in 10.0 mi West 13.8 mph 20.7 mph N/A   Mostly Cloudy
4:50 PM 32.0 °F 21.6 °F 17.6 °F 55% 30.35 in 10.0 mi West 15.0 mph - N/A   Mostly Cloudy
5:50 PM 28.4 °F 19.7 °F 15.8 °F 59% 30.34 in 10.0 mi WSW 9.2 mph - N/A   Mostly Cloudy
6:50 PM 24.8 °F 16.9 °F 17.6 °F 74% 30.35 in 10.0 mi South 6.9 mph - N/A   Scattered Clouds
7:50 PM 23.0 °F 13.9 °F 15.8 °F 74% 30.35 in 10.0 mi South 8.1 mph - N/A   Clear
8:15 PM 21.2 °F - 15.8 °F 80% 30.36 in 10.0 mi Calm Calm - N/A   Clear
8:35 PM 19.4 °F - 14.0 °F 80% 30.36 in 10.0 mi Calm Calm - N/A   Clear
8:50 PM 21.2 °F - 14.0 °F 74% 30.37 in 10.0 mi Calm Calm - N/A   Clear
8:55 PM 23.0 °F - 14.0 °F 68% 30.36 in 10.0 mi Calm Calm - N/A   Clear
9:15 PM 21.2 °F - 14.0 °F 74% 30.36 in 10.0 mi Calm Calm - N/A   Clear
9:35 PM 21.2 °F - 12.2 °F 68% 30.36 in 10.0 mi Calm Calm - N/A   Clear
9:55 PM 19.4 °F 12.8 °F 12.2 °F 74% 30.36 in 10.0 mi South 4.6 mph - N/A   Clear
10:15 PM 17.6 °F 9.3 °F 10.4 °F 73% 30.36 in 10.0 mi SSE 5.8 mph - N/A   Clear
10:35 PM 14.0 °F 6.5 °F 10.4 °F 86% 30.36 in 10.0 mi South 4.6 mph - N/A   Clear
10:55 PM 15.8 °F 10.2 °F 12.2 °F 86% 30.35 in 10.0 mi South 3.5 mph - N/A   Clear
11:15 PM 14.0 °F 5.1 °F 10.4 °F 86% 30.34 in 10.0 mi South 5.8 mph - N/A   Clear
11:35 PM 12.2 °F 4.3 °F 10.4 °F 92% 30.34 in 10.0 mi SSE 4.6 mph - N/A   Clear
11:55 PM 12.2 °F - 8.6 °F 85% 30.33 in 10.0 mi Calm Calm - N/A   Clear